Location: Wildlife_Club
(35.6000°N, 81.4330°W)
Time: 08:36:18
(UTC-04:00)

A-11 Canister half - Pass Details

Date: 02 July 2019
Orbit: 1514 x 1685 km, 47.2° (Epoch: 20 July)

Event Time Altitude Azimuth Distance (km) Brightness Sun altitude
Rises 17:56:46 0° 291° (WNW) 4,775 12.6 31.5°
Reaches altitude 10° 18:01:17 10° 273° (W) 3,754 12.7 30.6°
Maximum altitude 18:06:46 17° 237° (WSW) 3,187 11.6 29.5°
Drops below altitude 10° 18:12:10 10° 200° (SSW) 3,684 11.2 28.4°
Sets 18:16:36 0° 182° (S) 4,647 11.5 27.6°
